Hauptseite
METAR-TAF:

METAR-TAF

Flughäfen :

Chapecó, Santa Catarina, Brasilien

Breite: 27-08-02S, Länge: 052-39-43W, Höhe: 654 m

Beobachtung

Neuester Wetterbericht von vor 29 Minuten, um 19:00 UTC
Wind 6 kt aus Süd/Südost
Temperatur 26°C
Luftfeuchtigkeit 48%
Luftdruck 1014 hPa
Sichtweite 10 km oder mehr
Leicht bewölkt in der Höhe von 3000 ft

METAR: SBCH 211900Z 15006KT 9999 FEW030 26/14 Q1014

Zeit: 17:29 (19:29 UTC)


TAF: fehlend

Wetterbeobachtungen und Prognosen von mehr als 4000 Flughäfen (METAR und TAF Bericht).

Die verfügbaren Stationen werden durch gelbe und rote Markierungen auf der Karte dargestellt.

Führen Sie die Maus auf sie, um den Namen der Station zu sehen.

Darauf klicken, um die Beobachtung von Wetterbeobachtungen und Prognosen zu sehen.

Um die Karte zu ändern : klicken Sie auf den grünen Tasten mit einem schwarzen Kreuz Zum Vergrößern, auf den grünen Button mit einem Gedankenstrich zu verkleinern, oder auf die grünen Pfeile für benachbarte Karten.


METAR-TAF: